Location: Llanfechell
(53.3833°N, 4.4667°W)
Time: 18:23:37
(UTC+00:00)

Daily predictions for brighter satellites

Satellite Brightness Start Highest point End
(mag) Time Altitude Azimuth Time Altitude Azimuth Time Altitude Azimuth
Cosmos 1980 4.3 17:08:58 10° NNW 17:14:13 36° NE 17:19:26 10° ESE
H-2A R/B 4.0 17:11:05 10° N 17:14:49 27° WNW 17:18:35 10° WSW
Cosmos 1242 Rocket 4.1 17:14:18 10° SE 17:16:35 17° E 17:18:54 10° NE
YAOGAN 6 3.6 17:14:34 10° ESE 17:17:40 26° ENE 17:20:45 10° N
CORIOLIS 4.2 17:12:40 10° SSE 17:17:58 62° ENE 17:23:16 10° N
Cosmos 2360 Rocket 3.2 17:13:57 10° NW 17:19:27 54° WSW 17:24:55 10° S
NOAA 12 4.2 17:14:25 10° SE 17:19:28 52° ENE 17:24:34 10° N
Cosmos 1898 Rocket 3.6 17:15:02 10° SSW 17:20:22 87° ESE 17:25:43 10° NNE
Cosmos 2228 3.5 17:16:45 10° NNW 17:21:05 69° W 17:25:22 10° S
SMAP 3.0 17:16:29 10° SSE 17:21:07 72° ENE 17:25:47 10° NNW
SJ 16-02 1.5 17:18:01 10° SSW 17:22:26 83° WNW 17:26:55 10° NNE
IRS-1C Rocket 4.1 17:17:13 10° SSE 17:22:27 75° ENE 17:27:44 10° NNW
H-2A R/B 2.7 17:18:42 10° SSE 17:22:32 72° ENE 17:26:26 10° N
Cosmos 1689 Rocket 2.1 17:19:43 10° NNE 17:22:41 84° WNW 17:25:38 10° SSW
COSMOS 2428 2.7 17:20:13 10° NNW 17:26:00 73° NE 17:31:45 10° SE
SL-24 R/B - RUBIN 2 4.3 17:21:03 10° SW 17:26:28 90° NW 17:32:38 10° NE
Cosmos 2219 Rocket 2.2 17:22:06 10° NNW 17:27:50 77° ENE 17:33:30 10° SE
Cosmos 1937 Rocket 3.5 17:24:31 10° SSW 17:29:46 79° ESE 17:35:06 10° NNE
CZ-4 R/B 2.3 17:28:07 10° ESE 17:31:34 27° ENE 17:35:04 10° N
COSMOS 2487 2.5 17:28:25 10° SSW 17:31:55 80° WNW 17:35:25 10° NNE
Cosmos 2184 Rocket 4.1 17:30:57 10° SSE 17:36:55 54° E 17:42:54 10° NNE
Cosmos 1892 Rocket 3.6 17:34:44 10° S 17:39:14 83° E 17:43:43 10° NNE
Cosmos 1241 Rocket 4.5 17:33:21 10° NW 17:39:33 65° NE 17:45:45 10° ESE
Cosmos 1812 Rocket 3.9 17:39:04 10° N 17:43:19 42° ENE 17:47:35 10° SE
ATLAS 5 CENTAUR R/B 3.0 17:41:16 10° NW 17:44:00 33° NNE 17:49:39 12° E
Cosmos 2154 Rocket 4.4 17:39:02 10° SSE 17:44:51 42° E 17:50:40 10° NNE
Cosmos 1125 Rocket 4.4 17:42:16 10° SSE 17:46:42 29° ESE 17:50:56 11° NE
COBE Rocket 4.1 17:42:06 10° NNE 17:47:13 81° WNW 17:52:23 10° SSW
Alouette 2 Rocket 4.1 17:51:01 10° NNW 17:55:17 85° WSW 18:01:39 10° SSE
Okean 1-7 Rocket 3.8 17:51:21 10° SSW 17:55:45 76° WNW 18:00:12 10° N
YAOGAN 1 3.0 17:52:03 10° SE 17:56:02 38° ENE 18:00:03 10° N
Cosmos 1269 Rocket 4.1 17:53:09 10° NNW 17:58:21 54° ENE 18:03:31 10° SE
Envisat 3.0 17:54:53 10° SSE 17:59:58 87° WSW 18:05:07 10° NNW
Cosmos 2058 Rocket 4.2 17:56:27 10° NNW 18:00:39 48° W 18:04:51 10° SSW
Cosmos 1048 Rocket 4.2 17:58:04 10° NNW 18:03:14 76° WSW 18:08:20 10° SSE
Cosmos-2242 3.8 18:00:23 10° N 18:04:15 30° ENE 18:08:03 10° SE
CZ-4C R/B 3.1 17:58:03 10° NW 18:05:00 79° SW 18:13:04 10° SE
NOSS 2-1 (E) 4.2 18:00:47 10° NW 18:05:32 58° NE 18:12:07 10° ESE
Cosmos 2074 Rocket 4.0 18:01:29 10° S 18:07:48 87° E 18:14:09 10° N
CSL-04 Debris 4.3 18:03:27 10° SE 18:08:40 53° ENE 18:13:55 10° N
Cosmos 2082 Rocket 4.2 18:05:22 10° WNW 18:09:21 19° NNW 18:13:20 10° NNE
PSLV R/B 4.4 18:07:36 10° N 18:11:38 61° WNW 18:15:38 10° SSW
Meteor 2-10 Rocket 4.1 18:06:53 10° N 18:11:55 35° ENE 18:16:44 10° SE
CZ-2D R/B 3.8 18:08:41 10° SE 18:12:13 36° ENE 18:15:46 10° N
Starlink AQ 4.1 18:09:58 10° SSW 18:12:27 26° SSE 18:13:16 22° ESE
Starlink AR 3.9 18:11:26 10° SSW 18:13:33 23° SSE 18:13:57 22° SE
Cosmos 1602 Rocket 3.6 18:10:28 10° S 18:14:46 57° E 18:19:04 10° NNE
Cosmos 2333 Rocket 3.1 18:09:17 10° NW 18:14:51 53° WSW 18:20:21 10° S
Starlink AS 4.0 18:12:27 10° SSW 18:14:58 27° SSE 18:15:42 24° ESE
Starlink BA 4.0 18:12:39 10° SSW 18:15:11 27° SSE 18:15:54 24° SE
Starlink AU 4.0 18:12:52 10° SSW 18:15:23 27° SSE 18:16:06 24° SE
Starlink AT 4.0 18:13:05 10° SSW 18:15:37 27° SSE 18:16:20 24° SE
Starlink BB 4.0 18:13:18 10° SSW 18:15:50 27° SSE 18:16:32 24° SE
Cosmos 1674 3.8 18:12:16 10° SSW 18:15:51 44° WNW 18:19:26 10° N
Starlink BC 4.0 18:13:32 10° SSW 18:16:04 27° SSE 18:16:45 24° SE
ATLAS CENTAUR R/B 3.9 18:10:28 10° SW 18:16:05 80° SE 18:28:23 17° ENE
Cosmos 372 Rocket 3.9 18:11:01 10° SSW 18:16:09 82° ESE 18:21:15 11° NNE
Starlink BK 4.0 18:13:44 10° SSW 18:16:16 27° SSE 18:16:58 24° SE
Starlink AY 4.0 18:13:58 10° SSW 18:16:29 27° SSE 18:17:11 24° SE
Starlink AW 4.0 18:14:10 10° SSW 18:16:43 27° SSE 18:17:23 25° SE
Starlink BJ 4.0 18:14:21 10° SSW 18:16:54 27° SSE 18:17:34 25° SE
Cosmos 2237 Rocket 2.1 18:11:14 10° NNW 18:16:54 73° NE 18:22:32 10° SE
Starlink AV 4.0 18:14:33 10° SSW 18:17:07 28° SSE 18:17:46 25° SE
Starlink BD 4.0 18:14:47 10° SSW 18:17:21 28° SSE 18:18:00 25° SE
Starlink BE 4.0 18:14:59 10° SSW 18:17:33 28° SSE 18:18:13 25° SE
Starlink BM 4.0 18:15:13 10° SSW 18:17:46 28° SSE 18:18:25 25° SE
Starlink AX 4.0 18:15:26 10° SSW 18:17:59 28° SSE 18:18:38 25° SE
Starlink BH 3.9 18:15:40 10° SSW 18:18:13 28° SSE 18:18:51 25° SE
Starlink AZ 3.9 18:15:53 10° SSW 18:18:26 28° SSE 18:19:03 25° SE
Starlink BG 3.9 18:16:06 10° SSW 18:18:40 28° SSE 18:19:16 26° SE
Starlink BF 3.9 18:16:19 10° SSW 18:18:53 28° SSE 18:19:29 26° SE
Starlink BL 3.9 18:16:29 10° SSW 18:19:04 28° SSE 18:19:41 26° SE
COSMO-SKYMED 1 2.7 18:14:50 10° NNE 18:19:07 51° E 18:23:20 10° S
Starlink AH 3.9 18:16:43 10° SSW 18:19:17 28° SSE 18:19:53 26° SE
Starlink AC 3.9 18:16:56 10° SW 18:19:30 28° SSE 18:20:06 26° SE
Cosmos 1340 Rocket 2.7 18:15:42 10° NNW 18:19:39 87° ENE 18:23:38 10° SSE
Starlink X 3.9 18:17:09 10° SW 18:19:44 29° SSE 18:20:18 26° SE
CZ-4B R/B 4.2 18:18:27 10° NNW 18:19:46 12° WNW 18:21:04 10° W
Cosmos 1300 2.9 18:16:01 10° NNW 18:19:51 71° W 18:23:38 10° S
Starlink AE 3.9 18:17:21 10° SW 18:19:57 29° SSE 18:20:32 26° SE
Starlink Z 3.9 18:17:35 10° SW 18:20:09 29° SSE 18:20:44 26° SE
Starlink AK 3.9 18:17:49 10° SW 18:20:23 29° SSE 18:20:57 27° SE
Starlink AL 3.9 18:18:02 10° SW 18:20:37 29° SSE 18:21:10 27° SE
Starlink AD 3.9 18:18:14 10° SW 18:20:49 29° SSE 18:21:22 27° SE
Starlink Y 3.9 18:18:40 10° SW 18:21:16 29° SSE 18:21:48 27° SE
Starlink AG 3.9 18:18:53 10° SW 18:21:29 29° SSE 18:22:00 27° SE
Starlink W 3.9 18:19:04 10° SW 18:21:41 29° SSE 18:22:13 27° SE
Starlink AJ 3.9 18:19:19 10° SW 18:21:55 29° SSE 18:22:25 27° SE
Starlink AM 3.8 18:19:44 10° SW 18:22:21 30° SSE 18:22:50 28° SE
Starlink AP 3.8 18:19:58 10° SW 18:22:34 30° SSE 18:23:03 28° SE
Starlink AA 3.8 18:20:10 10° SW 18:22:47 30° SSE 18:23:16 28° SE
Starlink AF 3.8 18:20:24 10° SW 18:23:01 30° SSE 18:23:30 28° SE
Starlink AB 3.8 18:20:37 10° SW 18:23:13 30° SSE 18:23:41 28° SE
Starlink AN 3.8 18:20:50 10° SW 18:23:26 30° SSE 18:23:54 28° SE
Nadezhda 3 Rocket 4.1 18:17:28 10° NNW 18:23:46 84° W 18:30:05 10° S
ADEOS Rocket 4.0 18:19:51 12° NE 18:24:38 28° E 18:30:26 10° SSE
Meteor 1-24 Rocket 3.7 18:19:40 10° SSW 18:24:58 79° WNW 18:30:26 10° NNE
Okean-O 3.3 18:21:54 10° S 18:26:15 57° WSW 18:30:40 10° NNW
Cosmos 1758 Rocket 3.9 18:27:30 10° SSE 18:31:31 39° E 18:33:08 28° NE
Meteor 2-5 Rocket 4.4 18:26:28 10° SSW 18:31:54 56° WNW 18:37:26 10° N
Starlink T 3.6 18:29:35 10° SW 18:32:15 33° SSE 18:32:25 33° SE
SL-14 R/B 3.4 18:28:17 10° SSW 18:32:18 80° W 18:36:18 10° N
Starlink N 3.6 18:30:42 10° SW 18:33:23 34° SSE 18:33:31 34° SSE
Cosmos 1727 Rocket 4.4 18:28:16 10° N 18:34:02 38° ENE 18:39:44 10° SE
Starlink Q 3.6 18:32:08 10° SW 18:34:50 35° SSE 18:34:54 35° SSE
Cosmos 1271 Rocket 3.2 18:32:02 10° SSW 18:35:42 57° WNW 18:39:26 10° N
Cosmos 2298 Rocket 4.2 18:30:29 10° SSW 18:35:46 73° WNW 18:40:46 12° NNE
Starlink P 3.6 18:33:21 10° SW 18:36:05 35° SSE 18:36:06 35° SSE
Cosmos 1455 2.5 18:32:45 10° N 18:36:26 41° ENE 18:36:37 41° E
Timation 2 Rocket 3.9 18:30:39 10° SSW 18:36:45 76° ESE 18:41:40 18° NE
SL-16 R/B 2.4 18:31:18 10° NNW 18:36:50 48° NE 18:39:50 25° ESE
Starlink U 3.6 18:34:35 10° SW 18:37:17 36° SSE 18:37:18 36° SSE
Cosmos 1626 Rocket 3.7 18:33:41 10° SSW 18:38:00 72° WNW 18:42:21 10° N
CSL-04 Rocket 3.6 18:32:59 10° SSE 18:38:28 83° ENE 18:44:04 10° NNW
Starlink B 3.6 18:35:50 10° SW 18:38:31 36° SSE 18:38:31 36° SSE
Cosmos 1939 Rocket 2.7 18:37:03 10° SSE 18:40:55 69° ENE 18:44:53 10° N
NOSS 0 Rocket 4.5 18:35:50 10° NW 18:41:58 61° WSW 18:48:03 10° SSE
Cosmos 494 Rocket 4.4 18:37:26 10° NNW 18:42:31 63° WSW 18:47:33 10° S
USA 267 3.3 18:38:39 26° ENE 18:42:39 75° NNW 18:49:10 10° W
Starlink D 3.6 18:40:02 10° SW 18:42:39 38° SSE 18:42:39 38° SSE
SKYMED 3 4.5 18:38:36 10° NNE 18:42:59 84° ESE 18:47:20 10° SSW
Ariane Rocket 3.2 18:38:31 10° SE 18:43:22 47° ENE 18:48:15 10° N
Starlink S 3.6 18:41:20 10° SW 18:43:55 39° S 18:43:55 39° S
Cosmos 2219 3.5 18:39:40 10° S 18:44:58 44° ESE 18:46:53 33° ENE
Starlink C 3.6 18:42:36 10° SW 18:45:09 39° S 18:45:09 39° S
H-2A R/B 2.8 18:46:39 30° NE 18:46:39 30° NE 18:50:32 10° N
ATLAS 5 CENTAUR R/B 2.3 18:42:14 10° WSW 18:46:34 52° NNW 18:49:06 26° NNE
Cosmos 1626 2.6 18:43:05 10° SSW 18:46:45 59° WNW 18:50:14 11° N
Starlink E 3.6 18:43:56 10° SW 18:46:27 39° S 18:46:27 39° S
Cosmos 2341 Rocket 4.0 18:40:33 10° S 18:46:52 67° E 18:53:10 10° NNE
Starlink J 3.6 18:45:15 10° SW 18:47:44 39° S 18:47:44 39° S
Starlink V 3.6 18:46:33 10° SW 18:49:00 39° S 18:49:00 39° S
Starlink H 3.7 18:47:54 10° SW 18:50:17 39° S 18:50:17 39° S
YAOGAN 6 4.4 18:47:40 10° SSW 18:51:04 34° W 18:54:28 10° NNW
Cosmos 1242 Rocket 3.5 18:47:43 10° SSW 18:51:07 46° WNW 18:54:03 14° N
ATLAS CENTAUR R/B 2.1 18:47:56 10° NW 18:51:45 35° NNE 18:51:45 35° NNE
Starlink F 3.7 18:49:14 10° SW 18:51:36 39° S 18:51:36 39° S
SL-8 Rocket 4.0 18:46:32 10° SSE 18:52:39 56° E 18:58:46 10° NNE
Starlink G 3.7 18:50:33 10° SW 18:52:53 39° S 18:52:53 39° S
Starlink L 3.8 18:51:53 10° SW 18:54:11 39° SSW 18:54:11 39° SSW
Cosmos 2251 Rocket 3.7 18:49:58 10° NNW 18:55:08 50° ENE 18:56:25 41° E
Starlink A 3.8 18:53:14 10° SW 18:55:29 38° SSW 18:55:29 38° SSW
Starlink R 3.9 18:54:36 10° SW 18:56:48 38° SSW 18:56:48 38° SSW
Cosmos 1825 Rocket 3.4 18:53:26 10° S 18:57:44 62° E 18:58:41 48° NE
CZ-2C R/B 4.0 18:58:30 32° NE 18:58:30 32° NE 19:02:41 10° N
Cosmos 1980 4.2 18:53:01 10° NW 18:58:39 60° WSW 19:04:14 10° SSE
Starlink K 3.9 18:55:54 10° SW 18:58:05 37° SSW 18:58:05 37° SSW
Starlink M 3.9 18:57:12 10° SW 18:59:20 37° SSW 18:59:20 37° SSW
SJ 16-02 3.9 18:58:51 10° W 19:01:46 17° NW 19:04:41 10° N
Cosmos 2297 Rocket 2.5 18:56:38 10° S 19:01:56 43° ESE 19:02:19 42° E
DMSP B5D1-3 4.5 19:01:09 33° NE 19:03:20 59° ESE 19:08:22 10° S
USA 32 4.0 18:58:49 10° S 19:04:04 85° W 19:09:21 10° N
Cosmos 1607 3.9 18:58:25 10° SW 19:04:34 84° NW 19:07:39 32° NE
NOSS 2-1 (C) 4.4 19:00:52 10° NW 19:05:51 73° SW 19:11:34 15° SE
CZ-4 R/B 2.8 19:02:38 10° SSW 19:06:27 40° W 19:10:22 10° NNW
SKYMED 2 4.1 19:03:02 11° N 19:07:11 60° WNW 19:11:27 10° SSW
Cosmos 2227 Rocket 2.4 19:08:27 10° S 19:13:41 47° ESE 19:13:41 47° ESE
Cosmos 2218 Rocket 3.9 19:15:17 10° S 19:21:35 73° E 19:28:00 10° NNE
Cosmos 1943 4.2 19:21:44 10° NNW 19:25:48 31° NNE 19:25:48 31° NNE
Cosmos 1125 Rocket 4.1 19:23:27 10° SW 19:28:32 54° WNW 19:31:15 27° N
YAOGAN 1 4.4 19:28:21 10° SSW 19:32:12 31° W 19:36:06 10° NNW
Cosmos 864 Rocket 4.3 19:26:24 10° S 19:32:31 78° E 19:38:41 10° NNE
ARGOS 3.5 19:37:10 51° NNE 19:37:10 51° NNE 19:41:23 10° N
Cosmos-2242 4.5 19:37:52 10° NNW 19:41:53 37° W 19:45:50 10° SSW
Cosmos 724 4.1 19:36:39 10° SW 19:42:37 79° SE 19:42:42 78° ESE
Meteor 1-27 4.3 19:47:53 10° NNW 19:52:45 68° NNW 19:52:45 68° NNW
Cosmos 2082 Rocket 4.4 19:53:18 10° NNW 19:55:50 13° N 19:56:12 13° N
Cosmos 2366 rocket 4.2 19:53:48 10° SSW 19:59:59 70° WNW 20:06:18 10° N
Cosmos 2237 Rocket 4.3 19:55:59 10° NW 20:00:27 25° WSW 20:04:54 10° SSW
ADEOS Rocket 3.3 20:06:42 25° N 20:10:39 74° WNW 20:17:36 10° SSW
SL-16 R/B 3.3 20:15:38 10° NW 20:20:55 41° WSW 20:21:47 38° SW
H-2A R/B 3.4 20:27:16 33° NW 20:27:16 33° NW 20:30:18 10° NNW
USA 267 3.4 20:25:59 65° NNW 20:25:59 65° NNW 20:31:56 10° WNW
Cosmos 2219 4.1 20:23:48 10° WSW 20:28:51 44° WNW 20:28:51 44° WNW
ATLAS CENTAUR R/B 4.1 20:26:58 10° NW 20:27:57 16° NW 20:27:57 16° NW
ATLAS 5 CENTAUR R/B 3.8 20:28:08 10° WNW 20:30:39 23° NW 20:30:39 23° NW
Cosmos 2297 Rocket 3.6 20:40:33 10° WSW 20:44:11 35° W 20:44:11 35° W
Cosmos 2227 Rocket 3.9 20:52:39 10° WSW 20:55:34 28° W 20:55:34 28° W
